sat.trackr.live / text

‹ back to catalog

KORSAT-7

NORAD 58463 · 2023-185B

PAYLOAD ACTIVE UNKNOWN

§ Identity

Operator
Country
SKOR
Launch date
2023-12-01
Launch site
AFWTR
Launch vehicle
Mass (kg)
RCS (m²)

External: N2YO · Heavens-Above · Gunter

§ Orbital elements

Epoch: 2026-05-25T04:27:43.850016Z

Period
95.95 min
Inclination
97.6293°
Eccentricity
0.0026643
Mean motion
15.00764374 rev/d
Perigee alt
546.0 km
Apogee alt
583.0 km
Semi-major
6,942.7 km
B*
1.2927e-4
RAAN
209.9072°
Arg perigee
42.3754°
Mean anomaly
317.9521°
Rev number
13,583

§ Raw data

KORSAT-71 58463U 23185B   26145.18592419  .00001591  00000+0  12927-3 0  99912 58463  97.6293 209.9072 0026643  42.3754 317.9521 15.00764374135834

JSON: /api/v1/satellites/58463 · /tle

For live sub-satellite position, see the globe view (requires WebGL).

§ Visibility from observer

Set your observer location to see the next 7 days of passes ≥ 10°. The values pass through the URL so the page stays shareable.

No JS? Fill the form by hand. The geolocation button needs JavaScript.